Location: Friaudour
(46.0460°N, 1.2873°E)
Time: 22:03:22
(UTC+00:00)

Cosmos 724 - Visible Passes

Search period start: 26 October 2020 00:00
Search period end: 05 November 2020 00:00
Orbit: 853 x 941 km, 65.6° (Epoch: 26 October)

Date Brightness Start Highest point End Pass type
(mag) Time Alt. Az. Time Alt. Az. Time Alt. Az.
26 Oct 6.6 03:18:38 13° N 03:18:38 13° N 03:21:03 10° NNE visible
26 Oct 6.6 05:04:16 10° NNW 05:07:19 14° NNE 05:10:21 10° NE visible
27 Oct 6.7 03:20:21 12° N 03:20:36 12° N 03:22:50 10° NNE visible
27 Oct 6.6 05:05:56 10° NNW 05:09:23 15° NNE 05:12:52 10° NE visible
28 Oct 6.7 03:22:03 11° N 03:22:44 12° N 03:24:44 10° NNE visible
28 Oct 6.6 05:07:32 10° NNW 05:11:25 17° NNE 05:15:21 10° ENE visible
29 Oct 6.7 03:23:47 11° N 03:24:52 11° N 03:26:50 10° NNE visible
29 Oct 6.5 05:09:08 10° NNW 05:13:27 19° NNE 05:17:47 10° ENE visible
30 Oct 6.7 03:25:31 11° N 03:26:59 12° N 03:29:06 10° NNE visible
30 Oct 6.3 05:10:44 10° NNW 05:15:26 22° NNE 05:20:09 10° E visible
31 Oct 6.7 03:27:16 11° N 03:29:06 12° N 03:31:31 10° NNE visible
31 Oct 6.2 05:12:20 10° NNW 05:17:23 26° NE 05:22:28 10° E visible
01 Nov 6.7 03:29:02 11° N 03:31:13 13° NNE 03:34:00 10° NE visible
01 Nov 6.0 05:13:55 10° NNW 05:19:17 30° NE 05:24:42 10° E visible
02 Nov 6.7 03:30:51 12° N 03:33:18 14° NNE 03:36:31 10° NE visible
02 Nov 5.7 05:15:31 10° NNW 05:21:10 36° NE 05:26:50 10° ESE visible
03 Nov 6.6 03:32:40 12° N 03:35:22 16° NNE 03:39:01 10° ENE visible
03 Nov 5.4 05:17:08 10° NNW 05:23:00 44° NE 05:28:54 10° ESE visible
04 Nov 6.6 03:34:33 13° N 03:37:25 18° NNE 03:41:29 10° ENE visible
04 Nov 5.1 05:18:46 10° NNW 05:24:48 54° NE 05:30:52 10° SE visible
